COSMOS 2251 DEB, 33975

Orbit data source: Space-Track

COSMOS 2251 DEB, 33975 is space debris in LEO originally from a launch on Wed, 16 Jun 1993 UTC launched from the Plesetsk Missile And Space Complex (PKMTR). The debris from Iridium 33, an American commercial communications satellite, has been tracked extensively since its accidental collision with the defunct Russian satellite Cosmos 2251 in 2009. This event, occurring at high speed in low Earth orbit (LEO), generated thousands of pieces of space debris, significantly increasing the risk of further collisions. The Iridium 33 debris cloud has impacted space traffic management and orbital debris mitigation strategies, making it a subject of ongoing study in space situational awareness.

Loading next visibility...
Identifier
33975, 1993-036FJ
Orbit
LEO
Country
Flag of CISCIS
Related business
Manufacturer
Unknown
Mission
Spacecraft
Bus & Motor
Unknown
Mass
Unknown
Launch date (UTC)
1993-06-16 (33 years ago)
Launch vehicle
Unknown
Launch site
Plesetsk Missile And Space Complex (PKMTR)
Object type
Payload
Rocket body
Debris
Shape & HBR
Unknown shape, 0.1 m
Radar Cross Section
Small (<0.1 m²)

Expand to show TLE details & history
Last TLE update: 10 hours ago

TLE from 10 hours ago
0 COSMOS 2251 DEB
1 33975U 93036FJ  26122.21716172  .00000530  00000-0  31876-3 0  9994
2 33975  73.8014 197.4687 0191582 305.7401  52.6041 14.00741904877965
Epoch: 2026-05-02T05:12Z
TLE epoch observation values (Epoch: 2026-05-02T05:12:42.772Z)
Latitude
-0.00007°
Longitude
-100.84777°
Altitude
810.905 km
Speed
7.49 km/s
True Right ascension
13h 09m 52s
True Declination
0° 00' 00"
Sunlit
Object was in full shadow at epoch
Visualization orbit readout
Latitude
Unknown
Longitude
Unknown
Altitude
Unknown
Speed
Unknown
Apparent Right ascension
Unknown
Apparent Declination
Unknown
Sunlit
N/A
Visualization observer readout
Local Sidereal Time
22:55:23
Azimuth
Unknown
Elevation
Unknown
Doppler factor
Unknown
Orbital elements
Apogee altitude
1,028.132 km
Perigee altitude
749.685 km
Semi-major axis
7,267.046 km
Eccentricity
0.01916
Inclination
73.8014°
RAAN
197.4687°
Arg. of periapsis
305.7401°
True anomaly
54.37367°
Mean anomaly
52.6041°
Eccentric anomaly
53.48632°
Mean motion
3.50353 °/min
Orbital period
102.75 mins
BSTAR
0.00031876
Loading maneuver chart data...
Computing Atmospheric mass density...

Documentation

Showing up to 5 results
|